ATLAS 5 CENTAUR DEB, 43955

Orbit data source: Space-Track

ATLAS 5 CENTAUR DEB, 43955 is space debris in HEO originally from a launch on Wed, 17 Sep 2014 UTC launched from the Air Force Eastern Test Range (AFETR). Debris objects in space refer to the collection of defunct objects orbiting the Earth. Examples of debris include non-operational satellites, rocket bodies, and fragments generated from explosions, collisions, or faulty payload assembly.

Loading next visibility...
Identifier
43955, 2014-055J
Orbit
HEO
Country
Flag of USUS
Related business
Flag of USUnited Launch Alliance/Lockheed Martin (US)
Manufacturer
Unknown
Mission
Spacecraft
Bus & Motor
Unknown
Mass
Unknown
Launch date (UTC)
2014-09-17 (11 years ago)
Launch vehicle
Unknown
Launch site
Air Force Eastern Test Range (AFETR)
Object type
Payload
Rocket body
Debris
Shape & HBR
Unknown shape, 1.1 m
Radar Cross Section
Medium (>0.1 m² and <1 m²)

Expand to show TLE details & history
Last TLE update: 5 days ago

TLE from 5 days ago
0 ATLAS 5 CENTAUR DEB
1 43955U 14055J   25282.57500440 -.00000055  00000-0  00000-0 0  9996
2 43955  20.7972 126.5327 4914502 193.1646 146.9815  1.93308004 50148
Epoch: 2025-10-09T13:48Z
TLE epoch observation values (Epoch: 2025-10-09T13:48:00.380Z)
Latitude
-0.00004°
Longitude
-98.87321°
Altitude
33,189.523 km
Speed
2.346 km/s
True Right ascension
08h 26m 14s
True Declination
0° 00' 00"
Sunlit
Object was in daylight at epoch
Visualization orbit readout
Latitude
Unknown
Longitude
Unknown
Altitude
Unknown
Speed
Unknown
Apparent Right ascension
Unknown
Apparent Declination
Unknown
Sunlit
N/A
Visualization observer readout
Local Sidereal Time
12:40:48
Azimuth
Unknown
Elevation
Unknown
Doppler factor
Unknown
Orbital elements
Apogee altitude
34,223.418 km
Perigee altitude
7,466.048 km
Semi-major axis
27,222.87 km
Eccentricity
0.49145
Inclination
20.7972°
RAAN
126.5327°
Arg. of periapsis
193.1646°
True anomaly
166.85528°
Mean anomaly
146.9815°
Eccentric anomaly
157.67679°
Mean motion
0.48322 °/min
Orbital period
745.01 mins
BSTAR
0
Loading maneuver chart data...
Computing Atmospheric mass density...

Documentation

Showing up to 5 results
|